Stations météo

réclame
Mon MeteoGroup
Kielder Castle, Grande-Bretagne (99186): Température de l'air & dewpoint: 19.04.2018 13:00:00 - 25.04.2018 13:00:00 (BST)Kielder Castle, Grande-Bretagne (99186): Température de l'air -20cm & Température de l'air -100cm: 19.04.2018 13:00:00 - 25.04.2018 13:00:00 (BST)Kielder Castle, Grande-Bretagne (99186): Quantités de précipitations: 19.04.2018 13:00:00 - 25.04.2018 13:00:00 (BST)
Date & Time tt [°C] td [°C] tt -20cm [°C] tt -100cm [°C] rr [mm]
25.04.2018 13:00:00 - - - - -
25.04.2018 12:00:00 8,3 5,9 - - 1,4
25.04.2018 11:00:00 8,5 5,4 - - 0,0
25.04.2018 10:00:00 8,5 5,4 9,7 8,0 0,0
25.04.2018 09:00:00 6,7 4,5 - - 0,0
25.04.2018 08:00:00 6,1 4,8 - - 0,0
25.04.2018 07:00:00 5,0 4,1 - - 0,0
25.04.2018 06:00:00 5,7 4,7 - - 0,0
25.04.2018 05:00:00 6,0 5,0 - - 0,4
25.04.2018 04:00:00 6,1 5,2 - - 0,6
25.04.2018 03:00:00 6,5 5,2 - - 0,0
25.04.2018 02:00:00 6,5 5,4 - - 0,0
25.04.2018 01:00:00 6,3 4,9 - - 0,0
25.04.2018 00:00:00 6,2 4,8 - - 0,0
24.04.2018 23:00:00 6,3 4,9 - - 0,0
24.04.2018 22:00:00 6,5 4,2 - - 0,0
24.04.2018 21:00:00 7,0 4,6 - - 0,0
24.04.2018 20:00:00 7,6 4,7 - - 0,0
24.04.2018 19:00:00 8,0 4,8 - - 0,0
24.04.2018 18:00:00 8,2 5,3 - - 0,0
24.04.2018 17:00:00 8,3 5,7 - - 0,0
24.04.2018 16:00:00 9,4 5,7 - - 0,0
24.04.2018 15:00:00 10,1 5,8 - - 0,0
24.04.2018 14:00:00 9,9 6,2 - - 0,0
24.04.2018 13:00:00 9,4 5,8 - - 0,0
24.04.2018 12:00:00 10,4 5,0 - - 0,0
24.04.2018 11:00:00 10,6 4,5 - - 0,0
24.04.2018 10:00:00 9,5 4,4 9,7 8,0 0,0
24.04.2018 09:00:00 8,6 5,2 - - 0,0
24.04.2018 08:00:00 7,2 5,1 - - 0,0
24.04.2018 07:00:00 6,4 4,6 - - 0,0
24.04.2018 06:00:00 6,6 4,7 - - 0,0
24.04.2018 05:00:00 6,8 4,8 - - 0,0
24.04.2018 04:00:00 7,1 5,3 - - 0,0
24.04.2018 03:00:00 7,2 5,0 - - 0,0
24.04.2018 02:00:00 7,2 5,3 - - 0,0
24.04.2018 01:00:00 6,9 4,8 - - 0,0
24.04.2018 00:00:00 6,9 4,1 - - 0,0
23.04.2018 23:00:00 8,4 6,5 - - 0,0
23.04.2018 22:00:00 8,8 7,8 - - 0,0
23.04.2018 21:00:00 9,2 8,5 - - 0,6
23.04.2018 20:00:00 8,6 8,2 - - 0,8
23.04.2018 19:00:00 8,4 7,6 - - 1,4
23.04.2018 18:00:00 8,3 7,2 - - 0,8
23.04.2018 17:00:00 8,5 6,7 - - 0,0
23.04.2018 16:00:00 9,4 5,7 - - 0,0
23.04.2018 15:00:00 10,1 5,2 - - 0,0
23.04.2018 14:00:00 9,8 5,2 - - 0,0
23.04.2018 13:00:00 9,6 6,0 - - 0,0
23.04.2018 12:00:00 9,3 5,8 - - 0,0
23.04.2018 11:00:00 9,3 6,0 - - 0,0
23.04.2018 10:00:00 8,2 5,8 10,0 7,9 0,0
23.04.2018 09:00:00 7,6 5,4 - - 0,0
23.04.2018 08:00:00 7,2 5,5 - - 0,0
23.04.2018 07:00:00 7,0 6,1 - - 0,4
23.04.2018 06:00:00 7,0 6,2 - - 0,6
23.04.2018 05:00:00 7,0 6,2 - - 0,4
23.04.2018 04:00:00 7,0 6,0 - - 0,0
23.04.2018 03:00:00 7,1 6,2 - - 0,0
23.04.2018 02:00:00 7,3 6,5 - - 0,6
23.04.2018 01:00:00 7,1 6,3 - - 3,0
23.04.2018 00:00:00 7,6 6,7 - - 0,6
22.04.2018 23:00:00 7,9 6,9 - - 0,6
22.04.2018 22:00:00 7,7 6,7 - - 0,2
22.04.2018 21:00:00 7,6 6,7 - - 1,6
22.04.2018 20:00:00 8,7 6,4 - - 0,2
22.04.2018 19:00:00 9,7 5,8 - - 0,0
22.04.2018 18:00:00 10,4 6,3 - - 0,0
22.04.2018 17:00:00 10,1 6,6 - - 0,0
22.04.2018 16:00:00 10,3 6,8 - - 0,0
22.04.2018 15:00:00 9,2 6,7 - - 0,0
22.04.2018 14:00:00 8,8 7,3 - - 0,0
22.04.2018 13:00:00 9,7 6,9 - - 0,0
22.04.2018 12:00:00 8,8 6,5 - - 0,2
22.04.2018 11:00:00 8,4 5,7 - - 0,4
22.04.2018 10:00:00 8,6 6,0 10,4 7,5 0,0
22.04.2018 09:00:00 9,4 7,7 - - 0,0
22.04.2018 08:00:00 11,0 10,8 - - 0,0
22.04.2018 07:00:00 10,9 10,7 - - 0,0
22.04.2018 06:00:00 11,1 10,9 - - 0,0
22.04.2018 05:00:00 10,2 10,0 - - 0,0
22.04.2018 04:00:00 10,3 10,0 - - 1,6
22.04.2018 03:00:00 10,9 10,6 - - 5,6
22.04.2018 02:00:00 10,0 9,3 - - 0,0
22.04.2018 01:00:00 11,1 10,0 - - 0,0
22.04.2018 00:00:00 12,2 10,0 - - 0,0
21.04.2018 23:00:00 12,7 10,1 - - 0,0
21.04.2018 22:00:00 14,5 10,3 - - 0,0
21.04.2018 21:00:00 15,2 10,3 - - 0,0
21.04.2018 20:00:00 16,5 10,0 - - 0,0
21.04.2018 19:00:00 17,9 7,5 - - 0,0
21.04.2018 18:00:00 18,6 5,6 - - 0,0
21.04.2018 17:00:00 19,2 5,1 - - 0,0
21.04.2018 16:00:00 18,4 4,3 - - 0,0
21.04.2018 15:00:00 17,9 3,9 - - 0,0
21.04.2018 14:00:00 17,9 3,9 - - 0,0
21.04.2018 13:00:00 15,6 3,8 - - 0,0
21.04.2018 12:00:00 15,5 4,9 - - 0,0
21.04.2018 11:00:00 14,6 5,6 - - 0,0
21.04.2018 10:00:00 13,2 7,1 9,9 7,2 0,0
21.04.2018 09:00:00 8,4 5,6 - - 0,0
21.04.2018 08:00:00 4,7 3,7 - - 0,0
21.04.2018 07:00:00 0,7 0,4 - - 0,0
21.04.2018 06:00:00 1,1 0,7 - - 0,0
21.04.2018 05:00:00 1,3 0,8 - - 0,0
21.04.2018 04:00:00 2,0 1,3 - - 0,0
21.04.2018 03:00:00 3,0 2,3 - - 0,0
21.04.2018 02:00:00 3,2 2,6 - - 0,0
21.04.2018 01:00:00 4,0 3,0 - - 0,0
21.04.2018 00:00:00 5,2 4,4 - - 0,0
20.04.2018 23:00:00 5,9 4,7 - - 0,0
20.04.2018 22:00:00 7,3 5,3 - - 0,0
20.04.2018 21:00:00 9,0 5,8 - - 0,0
20.04.2018 20:00:00 10,3 6,5 - - 0,0
20.04.2018 19:00:00 11,3 7,0 - - 0,0
20.04.2018 18:00:00 13,1 6,7 - - 0,0
20.04.2018 17:00:00 14,4 6,9 - - 0,0
20.04.2018 16:00:00 14,8 7,2 - - 0,0
20.04.2018 15:00:00 14,9 7,2 - - 0,0
20.04.2018 14:00:00 14,5 5,9 - - 0,0
20.04.2018 13:00:00 14,1 5,7 - - 0,0
20.04.2018 12:00:00 12,6 7,9 - - 0,0
20.04.2018 11:00:00 10,9 6,5 - - 0,0
20.04.2018 10:00:00 9,9 7,2 9,4 6,9 0,0
20.04.2018 09:00:00 8,6 7,6 - - 0,0
20.04.2018 08:00:00 8,4 7,6 - - 0,0
20.04.2018 07:00:00 8,4 7,8 - - 0,0
20.04.2018 06:00:00 8,3 7,6 - - 0,0
20.04.2018 05:00:00 8,5 7,7 - - 0,0
20.04.2018 04:00:00 8,6 7,7 - - 0,0
20.04.2018 03:00:00 9,1 7,8 - - 0,0
20.04.2018 02:00:00 9,0 7,7 - - 0,0
20.04.2018 01:00:00 9,5 8,1 - - 0,0
20.04.2018 00:00:00 9,8 8,7 - - 0,0
19.04.2018 23:00:00 10,3 8,9 - - 0,0
19.04.2018 22:00:00 10,8 9,2 - - 0,0
19.04.2018 21:00:00 11,4 9,5 - - 0,0
19.04.2018 20:00:00 12,0 9,6 - - 0,0
19.04.2018 19:00:00 12,7 10,0 - - 0,0
19.04.2018 18:00:00 13,1 10,2 - - 0,0
19.04.2018 17:00:00 13,1 10,3 - - 0,0
19.04.2018 16:00:00 14,4 10,6 - - 0,0
19.04.2018 15:00:00 16,8 11,3 - - 0,0
19.04.2018 14:00:00 19,5 11,4 - - 0,0
19.04.2018 13:00:00 19,3 11,5 - - 0,0

tt = Température de l'air
td = dewpoint
tt -20cm = Température de l'air -20cm
tt -100cm = Température de l'air -100cm
rr = Quantités de précipitations

stations d'obs. à proximité